FW8143 Weather Reports


time (UTC)temp
F
wind
direction
speed
knots
gust
knots
rain 1hr
in
rain 24hr
in
rain mn
in
humidity
%
barometer
mb
20260508111130 49 42 5.2 7.8 0.00 0.00 0.00 34 1023.8
20260508110631 49 53 4.3 7.8 0.00 0.00 0.00 34 1023.8
20260508110127 49 24 4.3 8.7 0.00 0.00 0.00 34 1023.9
20260508105627 49 53 5.2 10.4 0.00 0.00 0.00 34 1023.8
20260508105127 49 0 5.2 10.4 0.00 0.00 0.00 34 1023.8
20260508104626 49 37 4.3 7.8 0.00 0.00 0.00 33 1023.7
20260508104127 49 76 4.3 9.6 0.00 0.00 0.00 33 1023.5
20260508103845 49 355 5.2 9.6 0.00 0.00 0.00 33 1023.5
20260508103126 49 19 6.1 10.4 0.00 0.00 0.00 33 1023.4
20260508102627 49 342 6.1 10.4 0.00 0.00 0.00 33 1023.3
20260508102340 49 50 6.1 10.4 0.00 0.00 0.00 33 1023.3
20260508102224 49 58 6.1 10.4 0.00 0.00 0.00 33 1023.3
20260508101345 48 32 5.2 11.3 0.00 0.00 0.00 33 1023.3
20260508100622 48 44 5.2 11.3 0.00 0.00 0.00 32 1023.3
20260508100123 48 42 5.2 12.2 0.00 0.00 0.00 32 1023.2
20260508095622 47 66 5.2 12.2 0.00 0.00 0.00 32 1023.2
20260508095123 47 48 4.3 9.6 0.00 0.00 0.00 32 1023.2
20260508094623 47 44 4.3 7.8 0.00 0.00 0.00 32 1023.3
20260508094124 47 35 4.3 7.8 0.00 0.00 0.00 32 1023.4
20260508093624 46 51 4.3 8.7 0.00 0.00 0.00 31 1023.3
20260508093124 46 69 4.3 8.7 0.00 0.00 0.00 31 1023.4
20260508092623 46 42 4.3 7.8 0.00 0.00 0.00 31 1023.4
20260508092120 46 63 4.3 7.8 0.00 0.00 0.00 30 1023.4
20260508091621 46 78 3.5 7.0 0.00 0.00 0.00 29 1023.4
20260508091120 46 68 3.5 6.1 0.00 0.00 0.00 28 1023.5
20260508090849 46 87 3.5 6.1 0.00 0.00 0.00 27 1023.5
20260508090120 46 79 4.3 7.0 0.00 0.00 0.00 26 1023.5
20260508085621 46 98 4.3 7.0 0.00 0.00 0.00 27 1023.8
20260508085121 46 88 4.3 7.0 0.00 0.00 0.00 26 1023.7
20260508084620 46 103 4.3 7.0 0.00 0.00 0.00 25 1023.7
20260508084121 46 82 4.3 7.0 0.00 0.00 0.00 25 1023.8
20260508083620 46 98 4.3 7.0 0.00 0.00 0.00 25 1023.8
20260508083119 46 95 3.5 6.1 0.00 0.00 0.00 25 1023.8
20260508082618 46 91 3.5 6.1 0.00 0.00 0.00 25 1023.8
20260508082118 46 88 3.5 6.1 0.00 0.00 0.00 26 1023.9
20260508081618 46 94 3.5 6.1 0.00 0.00 0.00 25 1023.9
20260508081119 46 99 3.5 6.1 0.00 0.00 0.00 25 1023.9
20260508080619 46 90 3.5 7.0 0.00 0.00 0.00 25 1023.9
20260508080118 46 83 4.3 7.0 0.00 0.00 0.00 25 1023.9
20260508075838 46 98 4.3 7.0 0.00 0.00 0.00 25 1023.9
20260508075119 46 95 4.3 7.0 0.00 0.00 0.00 25 1023.9
20260508074619 46 93 4.3 7.0 0.00 0.00 0.00 25 1024.0
20260508074119 46 92 4.3 7.0 0.00 0.00 0.00 25 1024.2
20260508073618 46 101 4.3 7.0 0.00 0.00 0.00 25 1024.2
20260508073118 46 97 4.3 7.0 0.00 0.00 0.00 25 1024.2
20260508072836 46 84 5.2 7.8 0.00 0.00 0.00 25 1024.2
20260508072115 46 95 5.2 7.8 0.00 0.00 0.00 25 1024.2
20260508071616 46 78 5.2 8.7 0.00 0.00 0.00 25 1024.2
20260508071114 46 86 6.1 8.7 0.00 0.00 0.00 25 1024.2
20260508070616 46 90 6.1 8.7 0.00 0.00 0.00 24 1024.2
20260508070114 46 102 6.1 8.7 0.00 0.00 0.00 24 1024.2
20260508065612 47 107 5.2 7.8 0.00 0.00 0.00 24 1024.2
20260508065112 47 94 5.2 7.8 0.00 0.00 0.00 24 1024.2
20260508064612 47 107 6.1 8.7 0.00 0.00 0.00 24 1024.3
20260508064112 46 99 6.1 8.7 0.00 0.00 0.00 25 1024.3
20260508063614 46 115 6.1 8.7 0.00 0.00 0.00 25 1024.2
20260508063557 47 94 5.2 8.7 0.00 0.00 0.00 25 1024.2
20260508062610 47 115 5.2 8.7 0.00 0.00 0.00 25 1024.2
20260508062328 47 103 5.2 7.8 0.00 0.00 0.00 25 1024.2
20260508061610 47 99 5.2 7.8 0.00 0.00 0.00 25 1024.2
20260508061110 47 114 5.2 8.7 0.00 0.00 0.00 25 1024.2
20260508060830 47 115 5.2 8.7 0.00 0.00 0.00 25 1024.0
20260508060112 47 111 5.2 8.7 0.00 0.00 0.00 25 1024.0
20260508055610 47 84 5.2 8.7 0.00 0.00 0.00 25 1024.2
20260508055331 47 107 5.2 7.8 0.00 0.00 0.00 24 1024.2
20260508054830 47 96 6.1 7.8 0.00 0.00 0.00 25 1024.2
20260508054107 47 107 5.2 8.7 0.00 0.00 0.00 25 1024.3
20260508053607 47 100 5.2 8.7 0.00 0.00 0.00 25 1024.3
20260508053330 48 93 5.2 7.8 0.00 0.00 0.00 25 1024.2
20260508052824 48 94 5.2 7.8 0.00 0.00 0.00 24 1024.3
20260508052109 48 102 5.2 7.8 0.00 0.00 0.00 24 1024.2
20260508051608 48 90 5.2 7.0 0.00 0.00 0.00 23 1024.3
20260508051108 48 91 5.2 7.0 0.00 0.00 0.00 23 1024.3
20260508050603 49 88 5.2 7.8 0.00 0.00 0.00 23 1024.3
20260508050103 49 94 5.2 7.8 0.00 0.00 0.00 23 1024.3
20260508045603 49 88 5.2 8.7 0.00 0.00 0.00 22 1024.3
20260508045103 49 69 6.1 8.7 0.00 0.00 0.00 22 1024.2
20260508044832 50 84 5.2 7.8 0.00 0.00 0.00 22 1024.3
20260508044103 50 78 4.3 7.0 0.00 0.00 0.00 22 1024.3
20260508043604 50 102 4.3 7.0 0.00 0.00 0.00 22 1024.3
20260508043307 51 100 3.5 6.1 0.00 0.00 0.00 20 1024.4
20260508043149 51 106 3.5 7.0 0.00 0.00 0.00 20 1024.4
20260508042329 51 93 3.5 7.0 0.00 0.00 0.00 20 1024.4
20260508041603 51 83 3.5 7.0 0.00 0.00 0.00 19 1024.4
20260508041102 52 96 3.5 6.1 0.00 0.00 0.00 19 1024.4
20260508040603 52 86 1.7 5.2 0.00 0.00 0.00 19 1024.4
20260508035602 53 136 1.7 4.3 0.00 0.00 0.00 18 1024.3
20260508035325 53 126 2.6 5.2 0.00 0.00 0.00 18 1024.3
20260508034602 53 142 1.7 5.2 0.00 0.00 0.00 17 1024.3
20260508034544 54 95 1.7 6.1 0.00 0.00 0.00 17 1024.3
20260508033556 54 126 2.6 6.1 0.00 0.00 0.00 16 1024.2
20260508033047 55 128 1.7 5.2 0.00 0.00 0.00 17 1024.0
20260508032544 55 148 2.6 6.1 0.00 0.00 0.00 16 1023.9
20260508032259 55 163 2.6 6.1 0.00 0.00 0.00 16 1023.7
20260508031531 56 169 2.6 7.0 0.00 0.00 0.00 15 1023.7
20260508031247 56 174 2.6 7.0 0.00 0.00 0.00 15 1023.5
20260508031002 56 146 3.5 7.8 0.00 0.00 0.00 15 1023.5
20260508030511 56 162 3.5 7.8 0.00 0.00 0.00 15 1023.4
20260508025519 57 197 3.5 7.0 0.00 0.00 0.00 14 1023.4
20260508025019 57 179 3.5 7.0 0.00 0.00 0.00 14 1023.3
20260508024519 58 159 3.5 7.0 0.00 0.00 0.00 15 1023.3
20260508024020 58 136 3.5 7.8 0.00 0.00 0.00 14 1023.3
20260508023517 58 178 4.3 8.7 0.00 0.00 0.00 14 1023.2
20260508023015 59 175 4.3 8.7 0.00 0.00 0.00 14 1023.2
20260508022514 59 178 3.5 7.8 0.00 0.00 0.00 14 1023.2
20260508022235 60 186 4.3 7.0 0.00 0.00 0.00 14 1023.2
20260508021514 60 173 5.2 9.6 0.00 0.00 0.00 14 1023.0
20260508021014 60 196 6.1 11.3 0.00 0.00 0.00 13 1023.0
20260508020515 61 191 6.1 11.3 0.00 0.00 0.00 13 1023.0
20260508020239 61 209 5.2 10.4 0.00 0.00 0.00 13 1022.9
20260508015515 62 227 4.3 9.6 0.00 0.00 0.00 14 1022.9
20260508015015 63 172 5.2 11.3 0.00 0.00 0.00 13 1022.9
20260508014514 63 199 6.1 11.3 0.00 0.00 0.00 13 1022.9
20260508014011 64 197 5.2 10.4 0.00 0.00 0.00 13 1022.9
20260508013510 64 197 5.2 9.6 0.00 0.00 0.00 13 1022.9
20260508013004 65 202 5.2 10.4 0.00 0.00 0.00 13 1022.8
20260508012458 65 196 5.2 13.0 0.00 0.00 0.00 13 1022.8
20260508012218 65 224 5.2 12.2 0.00 0.00 0.00 13 1022.8
20260508011705 66 213 6.1 12.2 0.00 0.00 0.00 12 1022.6
20260508010940 66 246 6.1 10.4 0.00 0.00 0.00 12 1022.6
20260508010434 66 199 5.2 13.0 0.00 0.00 0.00 12 1022.6
20260508010144 67 266 4.3 13.0 0.00 0.00 0.00 12 1022.6
20260508005421 67 240 5.2 10.4 0.00 0.00 0.00 12 1022.6
20260508004915 67 227 5.2 10.4 0.00 0.00 0.00 12 1022.6
20260508004409 67 239 4.3 8.7 0.00 0.00 0.00 13 1022.6
20260508003904 67 275 3.5 8.7 0.00 0.00 0.00 13 1022.6
20260508003357 67 259 3.5 8.7 0.00 0.00 0.00 12 1022.8
20260508002851 68 236 3.5 9.6 0.00 0.00 0.00 13 1022.6
20260508002346 67 254 4.3 10.4 0.00 0.00 0.00 13 1022.8
20260508001840 68 229 6.1 11.3 0.00 0.00 0.00 13 1022.9
20260508001334 68 275 7.0 12.2 0.00 0.00 0.00 13 1022.8
20260508001319 68 350 7.8 12.2 0.00 0.00 0.00 14 1022.8
20260508000321 68 321 7.8 12.2 0.00 0.00 0.00 14 1022.8
20260508000038 69 240 7.0 11.3 0.00 0.00 0.00 15 1022.6
20260507235310 69 272 6.1 11.3 0.00 0.00 0.00 15 1022.6
20260507234804 69 251 6.1 12.2 0.00 0.00 0.00 15 1022.8
20260507234515 69 244 6.1 13.0 0.00 0.00 0.00 16 1022.8
20260507233752 69 273 5.2 13.0 0.00 0.00 0.00 16 1022.8
20260507233246 69 248 4.3 10.4 0.00 0.00 0.00 17 1022.8
20260507232740 69 295 5.2 10.4 0.00 0.00 0.00 17 1023.0
20260507232234 69 192 6.1 12.2 0.00 0.00 0.00 18 1022.9
20260507232217 69 215 7.0 13.9 0.00 0.00 0.00 17 1022.9
20260507231222 69 252 7.0 13.9 0.00 0.00 0.00 17 1022.9
20260507230717 69 236 6.1 12.2 0.00 0.00 0.00 17 1023.0
20260507230210 70 277 6.1 14.8 0.00 0.00 0.00 17 1022.9
20260507225704 70 259 5.2 14.8 0.00 0.00 0.00 18 1022.9
20260507225158 70 71 4.3 13.0 0.00 0.00 0.00 17 1022.9
20260507224653 70 323 4.3 13.0 0.00 0.00 0.00 18 1023.0
20260507224146 70 279 2.6 11.3 0.00 0.00 0.00 16 1023.0
20260507223856 70 261 3.5 11.3 0.00 0.00 0.00 16 1023.0
20260507223134 70 298 3.5 11.3 0.00 0.00 0.00 16 1023.2
20260507222627 70 53 3.5 8.7 0.00 0.00 0.00 16 1023.2
20260507222122 71 0 3.5 10.4 0.00 0.00 0.00 15 1023.3
20260507221835 71 250 3.5 10.4 0.00 0.00 0.00 15 1023.3
20260507221110 71 313 4.3 14.8 0.00 0.00 0.00 16 1023.3
20260507220603 70 329 4.3 14.8 0.00 0.00 0.00 16 1023.4
20260507220058 70 150 4.3 12.2 0.00 0.00 0.00 15 1023.4
20260507215820 70 42 4.3 9.6 0.00 0.00 0.00 15 1023.5
20260507215046 70 297 5.2 13.9 0.00 0.00 0.00 14 1023.7
20260507214540 70 349 7.0 13.9 0.00 0.00 0.00 15 1023.8
20260507214038 70 319 7.8 15.6 0.00 0.00 0.00 15 1023.8
20260507213538 69 19 7.0 15.6 0.00 0.00 0.00 14 1023.8
20260507213038 69 302 5.2 13.0 0.00 0.00 0.00 13 1023.9
20260507212537 69 328 4.3 10.4 0.00 0.00 0.00 14 1024.0
20260507212038 69 309 4.3 10.4 0.00 0.00 0.00 13 1024.2
20260507211800 69 320 4.3 11.3 0.00 0.00 0.00 13 1024.2
20260507211038 69 257 5.2 12.2 0.00 0.00 0.00 12 1024.2
20260507210754 69 304 6.1 12.2 0.00 0.00 0.00 12 1024.3
20260507210038 69 327 6.1 11.3 0.00 0.00 0.00 12 1024.3
20260507205537 69 287 6.1 12.2 0.00 0.00 0.00 12 1024.3
20260507205038 69 344 5.2 12.2 0.00 0.00 0.00 12 1024.2
20260507204537 68 275 5.2 11.3 0.00 0.00 0.00 11 1024.4
20260507204038 68 11 5.2 10.4 0.00 0.00 0.00 12 1024.5
20260507203538 68 230 6.1 12.2 0.00 0.00 0.00 11 1024.5
20260507203038 68 34 5.2 12.2 0.00 0.00 0.00 10 1024.7
20260507202537 68 20 5.2 13.0 0.00 0.00 0.00 11 1024.8
20260507202031 68 15 5.2 13.0 0.00 0.00 0.00 11 1024.8
20260507201525 68 273 6.1 18.2 0.00 0.00 0.00 12 1024.8
20260507201021 68 284 6.1 18.2 0.00 0.00 0.00 10 1024.8
20260507200522 67 9 5.2 14.8 0.00 0.00 0.00 11 1024.8
20260507200023 67 311 5.2 12.2 0.00 0.00 0.00 11 1024.9
20260507195522 67 217 6.1 11.3 0.00 0.00 0.00 10 1025.0
20260507195022 67 184 5.2 12.2 0.00 0.00 0.00 13 1025.0
20260507194521 66 290 6.1 12.2 0.00 0.00 0.00 12 1025.0
20260507194244 66 244 6.1 13.0 0.00 0.00 0.00 13 1025.2
20260507193522 65 44 4.3 13.0 0.00 0.00 0.00 14 1025.0
20260507193022 65 252 5.2 11.3 0.00 0.00 0.00 14 1025.2
20260507192522 65 14 7.0 15.6 0.00 0.00 0.00 14 1025.2
20260507192019 65 9 7.8 15.6 0.00 0.00 0.00 16 1025.2
20260507191520 64 348 6.1 13.0 0.00 0.00 0.00 15 1025.2
20260507191018 64 273 6.1 11.3 0.00 0.00 0.00 17 1025.2
20260507190518 64 355 7.0 14.8 0.00 0.00 0.00 19 1025.3
20260507190458 64 332 7.0 14.8 0.00 0.00 0.00 20 1025.4
20260507185517 63 18 7.0 14.8 0.00 0.00 0.00 20 1025.4
20260507185018 63 288 7.8 14.8 0.00 0.00 0.00 20 1025.4
20260507184740 62 15 8.7 17.4 0.00 0.00 0.00 21 1025.5
20260507184625 62 348 8.7 17.4 0.00 0.00 0.00 21 1025.5
20260507183518 62 336 7.0 13.9 0.00 0.00 0.00 22 1025.7
20260507183018 61 306 7.0 15.6 0.00 0.00 0.00 23 1025.5
20260507183001 60 5 7.8 16.5 0.00 0.00 0.00 25 1025.7
20260507182018 60 344 8.7 16.5 0.00 0.00 0.00 25 1025.7
20260507181517 60 311 7.8 15.6 0.00 0.00 0.00 26 1025.8
20260507181018 59 5 8.7 15.6 0.00 0.00 0.00 26 1025.8
20260507180738 59 296 9.6 17.4 0.00 0.00 0.00 27 1025.8
20260507180016 58 351 9.6 17.4 0.00 0.00 0.00 28 1025.9
20260507175514 58 10 9.6 17.4 0.00 0.00 0.00 29 1025.9
20260507175009 57 9 9.6 18.2 0.00 0.00 0.00 30 1026.0
20260507174503 57 15 9.6 18.2 0.00 0.00 0.00 33 1026.0
20260507173956 56 298 9.6 16.5 0.00 0.00 0.00 33 1026.2
20260507173451 56 22 9.6 19.1 0.00 0.00 0.00 36 1026.3
20260507172945 55 319 9.6 19.1 0.00 0.00 0.00 37 1026.3
20260507172438 55 336 9.6 18.2 0.00 0.00 0.00 39 1026.3
20260507171933 54 13 8.7 18.2 0.00 0.00 0.00 41 1026.3
20260507171434 53 321 8.7 17.4 0.00 0.00 0.00 43 1026.3
20260507171204 53 30 8.7 17.4 0.00 0.00 0.00 44 1026.4
20260507170434 52 34 9.6 18.2 0.00 0.00 0.00 44 1026.4
20260507170157 52 5 9.6 18.2 0.00 0.00 0.00 46 1026.5
20260507165916 51 10 9.6 18.2 0.00 0.00 0.00 47 1026.4
20260507164933 51 294 9.6 17.4 0.00 0.00 0.00 48 1026.5
20260507164659 50 10 9.6 18.2 0.00 0.00 0.00 49 1026.5
20260507163934 50 44 9.6 20.0 0.00 0.00 0.00 51 1026.5
20260507163657 49 355 7.8 20.0 0.00 0.00 0.00 53 1026.5
20260507163151 49 321 8.7 17.4 0.00 0.00 0.00 54 1026.5
20260507162656 48 355 11.3 18.2 0.00 0.00 0.00 56 1026.4
20260507161934 48 5 11.3 18.2 0.00 0.00 0.00 57 1026.5
20260507161433 47 32 10.4 18.2 0.00 0.00 0.00 59 1026.5
20260507160933 47 10 10.4 18.2 0.00 0.00 0.00 60 1026.7
20260507160434 46 0 9.6 18.2 0.00 0.00 0.00 60 1026.7
20260507155933 46 23 9.6 17.4 0.00 0.00 0.00 62 1026.7
20260507155427 45 355 9.6 17.4 0.00 0.00 0.00 62 1026.8
20260507154921 45 0 8.7 15.6 0.00 0.00 0.00 63 1026.9
20260507154414 44 18 7.8 15.6 0.00 0.00 0.00 65 1026.8
20260507154129 44 317 7.0 13.0 0.00 0.00 0.00 65 1026.9
20260507153402 43 355 7.0 13.0 0.00 0.00 0.00 65 1026.9
20260507152856 43 332 6.1 12.2 0.00 0.00 0.00 65 1027.1
20260507152350 42 5 6.1 12.2 0.00 0.00 0.00 66 1027.1
20260507151845 42 331 6.1 11.3 0.00 0.00 0.00 67 1027.2
20260507151338 41 309 3.5 11.3 0.00 0.00 0.00 69 1027.1
20260507151057 40 307 2.6 7.8 0.00 0.00 0.00 70 1027.1
20260507150327 39 323 2.6 7.8 0.00 0.00 0.00 71 1027.1
20260507145821 39 295 2.6 7.0 0.00 0.00 0.00 73 1027.2
20260507145315 38 305 3.5 7.0 0.00 0.00 0.00 73 1027.2
20260507144809 38 303 2.6 7.0 0.00 0.00 0.00 75 1027.3
20260507144302 37 298 2.6 6.1 0.00 0.00 0.00 77 1027.3
20260507143757 36 335 3.5 7.8 0.00 0.00 0.00 77 1027.3
20260507143251 36 0 4.3 8.7 0.00 0.00 0.00 78 1027.3
20260507142745 35 24 5.2 8.7 0.00 0.00 0.00 79 1027.4
20260507142239 35 21 3.5 8.7 0.00 0.00 0.00 80 1027.4
20260507141733 35 320 2.6 8.7 0.00 0.00 0.00 81 1027.6
20260507141451 34 329 3.5 9.6 0.00 0.00 0.00 83 1027.7
20260507140720 34 0 3.5 9.6 0.00 0.00 0.00 85 1027.8
20260507140215 34 19 3.5 7.8 0.00 0.00 0.00 86 1027.8
20260507135709 33 351 2.6 6.1 0.00 0.00 0.00 86 1027.8
20260507135203 33 324 2.6 7.0 0.00 0.00 0.00 87 1027.8
20260507134657 33 18 1.7 7.0 0.00 0.00 0.00 87 1027.8
20260507134151 33 53 1.7 4.3 0.00 0.00 0.00 87 1027.7
20260507133644 32 50 0.9 3.5 0.00 0.00 0.00 87 1027.7
20260507133139 32 64 0.9 3.5 0.00 0.00 0.00 87 1027.7
20260507132632 32 42 0.9 2.6 0.00 0.00 0.00 87 1027.6
20260507132127 32 38 0.0 2.6 0.00 0.00 0.00 86 1027.6
20260507131621 31 42 0.0 2.6 0.00 0.00 0.00 86 1027.7
20260507131115 31 42 0.9 3.5 0.00 0.00 0.00 86 1027.7
20260507130610 31 42 1.7 3.5 0.00 0.00 0.00 85 1027.7
20260507130104 31 81 2.6 5.2 0.00 0.00 0.00 85 1027.8
20260507125558 31 87 2.6 5.2 0.00 0.00 0.00 85 1027.7
20260507125052 31 101 3.5 6.1 0.00 0.00 0.00 84 1027.7
20260507124546 31 89 3.5 6.1 0.00 0.00 0.00 84 1027.6
20260507124040 31 87 3.5 5.2 0.00 0.00 0.00 83 1027.6
20260507123534 31 94 3.5 6.1 0.00 0.00 0.00 83 1027.6
20260507123028 31 77 3.5 6.1 0.00 0.00 0.00 83 1027.7
20260507122529 31 86 3.5 6.1 0.00 0.00 0.00 83 1027.7
20260507122029 31 80 2.6 6.1 0.00 0.00 0.00 82 1027.7
20260507121747 31 73 1.7 4.3 0.00 0.00 0.00 80 1027.7
20260507121029 31 52 0.9 4.3 0.00 0.00 0.00 80 1027.8
20260507120527 31 66 0.9 2.6 0.00 0.00 0.00 80 1027.8
20260507120511 31 82 0.9 2.6 0.00 0.00 0.00 80 1027.7
20260507115525 32 51 0.0 1.7 0.00 0.00 0.00 80 1027.7
20260507115517 32 43 0.9 5.2 0.00 0.00 0.00 80 1027.7
20260507114523 32 43 1.7 5.2 0.00 0.00 0.00 80 1027.7
20260507114021 32 77 2.6 5.2 0.00 0.00 0.00 80 1027.7
20260507113519 32 94 3.5 5.2 0.00 0.00 0.00 80 1027.6
20260507113019 32 90 3.5 5.2 0.00 0.00 0.00 79 1027.6
20260507112519 32 94 3.5 6.1 0.00 0.00 0.00 80 1027.6
20260507112018 32 96 3.5 6.1 0.00 0.00 0.00 79 1027.6